Rush City, MN

1:04 PM CDT on September 02, 2015 (GMT -0500)
Rush City Regional | | Change Station
CLOSE
Current Station
Airport
Location: Rush City,
Elevation: 922 ft
Nearby Weather Stations

Elev 922 ft 45.70 °N, 92.95 °W | Updated 9 minutes ago

Thunderstorm
Thunderstorm
72 °F
Feels Like 72 °F
N
8
Wind Variable Wind from East

Today
High -- | Low -- °F
--% Chance of Precip.
Yesterday
High -- | Low -- °F
Precip. -- in
6:33 AM 7:48 PM
Waning Gibbous, 78% visible
Pressure 29.94 in
Visibility 10.0 miles
Clouds Overcast 1400 ft
Dew Point 67 °F
Humidity 83%
Rainfall 0.31 in
Snow Depth Not available.
UV 2 out of 12
Pollen 10.00 out of 12
Air Quality Not available.
Flu Activity Not available.
METAR KROS 021755Z AUTO 09007KT 10SM TS OVC014 22/19 A2994 RMK AO2 LTG DSNT SE AND S T02240193 10235 20200
Pressure 29.94 in
Visibility 10.0 miles
Clouds Overcast 1400 ft
Dew Point 67 °F
Humidity 83%
Rainfall 0.31 in
Snow Depth Not available.
UV 2 out of 12
Pollen 10.00 out of 12
Air Quality Not available.
Flu Activity Not available.
METAR KROS 021755Z AUTO 09007KT 10SM TS OVC014 22/19 A2994 RMK AO2 LTG DSNT SE AND S T02240193 10235 20200

10-Day Weather Forecast

×

Almanac

Astronomy

Sep. 02, 2015 Rise Set
Actual Time
Civil Twilight
Nautical Twilight
Astronomical Twilight
Moon
Length of Visible Light
Length of Day
Tomorrow will be .
, % of the Moon is Illuminated

Today's Extremes

State Highs State Lows

Community

WunderPhotos

Upload Photos

1,851,789 photos uploaded!

WunderBlogs® & News

Nearby

Air Quality

  Air Quality AQ Index Pollutant
Not available.

Snow Depth

Station Depth Elevation

Earthquake Activity

City Distance Mag. Time & Date
Minimum magnitude displayed is 2.5.

Coastal Water Temperatures

Place Temperature

Stations

Nearby Weather Stations

Station Location Temp. Windchill Dew Point Humidity Wind Precip. Elev Updated Type